Hourly Data Report for September 12, 2017

All times are specified in Local Standard Time (LST). Add 1 hour to adjust for Daylight Saving Time where and when it is observed.

KITCHENER/WATERLOO
ONTARIO

43°27'39.000" N
80°22'43.000" W
321.60 m
6144239
71368
YKF

Download Data

Hourly Data (September 2017)
Hourly Data Report for September 12, 2017
Temp Definition
°C
Dew Point Temp Definition
°C
Rel Hum Definition
%
Wind Dir Definition
10's deg

Wind Spd Definition
km/h
Visibility Definition
km
Stn Press Definition
kPa
Hmdx Definition


Wind Chill Definition


Weather Definition


TIME
00:00 Legend Double Dagger 8.3 8.2 99 8 4 2.8 98.28     Rain,Fog
01:00 Legend Double Dagger 8.1 8.0 99   0 0.6 98.18     Fog
02:00 Legend Double Dagger 6.8 6.7 99   0 3.2 98.14     Fog
03:00 Legend Double Dagger 6.3 6.2 99   0 0.4 98.12     Fog
04:00 Legend Double Dagger 6.3 6.2 99 34 8 0.8 98.10     Rain,Fog
05:00 Legend Double Dagger 6.0 5.9 99 33 5 0.2 98.08     Rain,Fog
06:00 Legend Double Dagger 5.7 5.6 99   0 0.4 98.07     Rain,Fog
07:00 Legend Double Dagger 7.1 7.0 99 32 4 2.4 98.07     Fog
08:00 Legend Double Dagger 11.0 10.9 99 LegendMM 4 6.4 98.08     Fog
09:00 Legend Double Dagger 14.7 13.8 94   0 16.1 98.04     LegendNANA
10:00 Legend Double Dagger 19.4 12.2 63 LegendMM 4 16.1 98.00     LegendNANA
11:00 Legend Double Dagger 21.0 11.2 53 LegendMM 5 16.1 97.94     LegendNANA
12:00 Legend Double Dagger 22.9 9.8 43 LegendMM 5 16.1 97.90     LegendNANA
13:00 Legend Double Dagger 23.2 11.2 46 LegendMM 8 16.1 97.83 25   LegendNANA
14:00 Legend Double Dagger 24.0 11.3 44 34 8 16.1 97.75 26   LegendNANA
15:00 Legend Double Dagger 24.3 10.9 42   0 16.1 97.68 26   LegendNANA
16:00 Legend Double Dagger 24.4 12.6 47 33 11 16.1 97.61 27   LegendNANA
17:00 Legend Double Dagger 23.0 12.9 53 35 11 16.1 97.59 26   LegendNANA
18:00 Legend Double Dagger 19.8 14.9 73 35 5 16.1 97.56     LegendNANA
19:00 Legend Double Dagger 16.3 13.8 85   0 2.4 97.56     Fog
20:00 Legend Double Dagger 13.4 12.1 92   0 16.1 97.59     LegendNANA
21:00 Legend Double Dagger 11.9 11.0 94 10 4 16.1 97.56     LegendNANA
22:00 Legend Double Dagger 11.6 11.1 97   0 16.1 97.54     LegendNANA
23:00 Legend Double Dagger 11.1 11.0 99   0 12.9 97.51     LegendNANA

Notes on Data Quality.

Legend

  • E = Estimated
  • M = Missing
  • NA = Not Available
  • ‡ = Partner data that is not subject to review by the National Climate Archives
Date modified: